Clayton Lake, ME

10:25 AM EDT on August 19, 2017 (GMT -0400)
Clayton Lake

Weather History for K40B - October, 2012

Change the Weather History Date:

Tuesday, October 2, 2012

  Actual Average Record
Temperature  
Mean Temperature 59 °F -  
Max Temperature 69 °F 54 °F 73 °F (2002)
Min Temperature 49 °F 33 °F 28 °F (2015)
Degree Days  
Heating Degree Days 6    
Growing Degree Days 9 (Base 50)    
Moisture  
Dew Point 48 °F    
Average Humidity 66    
Maximum Humidity 98    
Minimum Humidity 39    
Precipitation  
Precipitation 0.24 in - - ()
Sea Level Pressure  
Sea Level Pressure 29.90 in    
Wind  
Wind Speed 4 mph (WSW)    
Max Wind Speed 8 mph    
Max Gust Speed 15 mph    
Averages and records for this station are not official NWS values.
T = Trace of Precipitation, MM = Missing Value Source: NWS Daily Summary

Daily Weather History Graph

Daily Weather History Graph

Search for Another Location

Airport or City:

Trip Planner

Search our weather history database for the weather conditions in past years. The results will help you decide how hot, cold, wet, or windy it might be!

Date:

Astronomy

Oct. 02, 2012 Rise Set
Actual Time 6:38 AM EDT 6:15 PM EDT
Civil Twilight 6:08 AM EDT 6:45 PM EDT
Nautical Twilight 5:33 AM EDT 7:20 PM EDT
Astronomical Twilight 4:57 AM EDT 7:55 PM EDT
Moon 7:13 PM EDT (10/2) 9:14 AM EDT (10/2)
Length of Visible Light 12h 36m
Length of Day
11h 36m
Waning Gibbous, 94% of the Moon is Illuminated
Oct 2
Waning Gibbous
Oct 8
Last Quarter
Oct 15
New
Oct 21
First Quarter
Oct 29
Full

Hourly Weather History & Observations

Time (EDT) Temp. Dew Point Humidity Pressure Visibility Wind Dir Wind Speed Gust Speed Precip Events Conditions
12:25 AM 53.6 °F 53.1 °F 98% 29.75 in - Variable 3.5 mph - N/A   Unknown
1:25 AM 51.8 °F - N/A% 29.78 in - Variable 3.5 mph - N/A   Unknown
2:25 AM 51.1 °F - N/A% 29.80 in - Variable 4.6 mph - N/A   Unknown
3:25 AM 51.6 °F - N/A% 29.81 in - Variable 2.3 mph - N/A   Unknown
4:25 AM 50.5 °F - N/A% 29.81 in - Variable 3.5 mph - N/A   Unknown
5:25 AM 50.4 °F - N/A% 29.83 in - Variable 4.6 mph 12.7 mph N/A   Unknown
6:25 AM 49.8 °F - N/A% 29.86 in - Variable 5.8 mph - N/A   Unknown
7:25 AM 50.7 °F - N/A% 29.89 in - Variable 3.5 mph - 0.00 in   Unknown
8:25 AM 54.3 °F 48.9 °F 82% 29.91 in - Variable 4.6 mph 12.7 mph N/A   Unknown
9:25 AM 57.6 °F 47.7 °F 70% 29.93 in - Variable 5.8 mph 12.7 mph N/A   Unknown
10:25 AM 61.0 °F 48.0 °F 62% 29.93 in - WSW 8.1 mph 15.0 mph 0.24 in   Unknown
11:25 AM 63.9 °F 47.5 °F 55% 29.92 in - Variable 4.6 mph 12.7 mph N/A   Unknown
12:25 PM 66.2 °F 46.9 °F 50% 29.93 in - Variable 4.6 mph 15.0 mph N/A   Unknown
1:28 PM 68.5 °F 42.8 °F 39% 29.92 in - Variable 6.9 mph 15.0 mph N/A   Unknown
2:25 PM 69.6 °F 43.5 °F 39% 29.91 in - Variable 4.6 mph 11.5 mph N/A   Unknown
3:25 PM 66.9 °F 44.6 °F 45% 29.92 in - Variable 4.6 mph 15.0 mph N/A   Unknown
4:25 PM 64.0 °F 47.1 °F 54% 29.93 in - Variable 4.6 mph 13.8 mph N/A   Unknown
5:25 PM 64.4 °F 46.8 °F 53% 29.94 in - Variable 2.3 mph - N/A   Unknown
6:25 PM 56.8 °F 51.6 °F 83% 29.96 in - Calm Calm - N/A   Unknown
7:25 PM 55.6 °F 51.6 °F 87% 29.97 in - Calm Calm - N/A   Unknown
8:25 PM 55.4 °F 51.1 °F 85% 29.98 in - Calm Calm - N/A   Unknown
9:25 PM 54.7 °F 53.1 °F 94% 30.00 in - Calm Calm - 0.00 in   Unknown
10:25 PM 51.1 °F - N/A% 30.01 in - Calm Calm - N/A   Unknown
11:25 PM 50.0 °F - N/A% 30.02 in - Calm Calm - N/A   Unknown